CW6043 Weather Reports


time (UTC)temp
C
wind
direction
speed
KPH
gust
KPH
rain 1hr
cm
rain 24hr
cm
rain mn
cm
humidity
%
barometer
mb
20260504202016 23 113 3.2 11.3 0.00 0.00 0.00 34 1009.5
20260504201016 23 45 1.6 4.8 0.00 0.00 0.00 34 1009.6
20260504200016 23 90 3.2 6.4 0.00 0.00 0.00 31 1009.6
20260504195017 23 90 3.2 9.7 0.00 0.00 0.00 31 1009.5
20260504194016 23 113 1.6 6.4 0.00 0.00 0.00 36 1009.6
20260504193016 23 135 3.2 11.3 0.00 0.00 0.00 32 1009.6
20260504192016 23 90 3.2 8.0 0.00 0.00 0.00 32 1009.7
20260504191016 23 135 3.2 11.3 0.00 0.00 0.00 32 1009.7
20260504190016 23 90 4.8 12.9 0.00 0.00 0.00 36 1009.8
20260504185016 23 68 1.6 4.8 0.00 0.00 0.00 32 1009.8
20260504184016 22 90 3.2 9.7 0.00 0.00 0.00 33 1009.9
20260504183016 22 90 3.2 9.7 0.00 0.00 0.00 33 1009.8
20260504182016 22 113 3.2 9.7 0.00 0.00 0.00 33 1009.8
20260504181016 22 90 1.6 6.4 0.00 0.00 0.00 35 1010.0
20260504180016 22 135 1.6 8.0 0.00 0.00 0.00 38 1010.0
20260504175016 22 135 1.6 6.4 0.00 0.00 0.00 35 1010.1
20260504174016 21 90 1.6 4.8 0.00 0.00 0.00 40 1010.1
20260504173036 21 113 1.6 4.8 0.00 0.00 0.00 37 1009.8
20260504172016 21 225 1.6 8.0 0.00 0.00 0.00 37 1009.9
20260504171016 21 135 1.6 3.2 0.00 0.00 0.00 39 1010.0
20260504151018 9 0.0 1.6 0.00 0.00 0.00 85 1010.2
20260504141017 3 0.0 0.0 0.00 0.00 0.00 93 1010.4
20260504081057 5 0.0 0.0 0.00 0.00 0.00 87 1008.8
20260504050017 10 0.0 0.0 0.00 0.00 0.00 76 1008.4
20260504045017 11 0.0 0.0 0.00 0.00 0.00 75 1008.4
20260504044037 11 0.0 0.0 0.00 0.00 0.00 74 1008.1
20260504043017 11 0.0 0.0 0.00 0.00 0.00 71 1008.3
20260504042017 12 0.0 0.0 0.00 0.00 0.00 71 1008.3
20260504041017 12 0.0 0.0 0.00 0.00 0.00 70 1008.3
20260504040017 13 0.0 0.0 0.00 0.00 0.00 70 1008.1
20260504035037 13 0.0 0.0 0.00 0.00 0.00 68 1008.0
20260504034017 14 0.0 0.0 0.00 0.00 0.00 63 1007.5
20260504033017 15 0.0 0.0 0.00 0.00 0.00 61 1007.7
20260504032017 16 0.0 0.0 0.00 0.00 0.00 60 1007.9
20260504031017 16 0.0 0.0 0.00 0.00 0.00 59 1007.3
20260504030017 17 0.0 0.0 0.00 0.00 0.00 54 1007.5
20260504025017 18 0.0 0.0 0.00 0.00 0.00 50 1007.5
20260504024017 20 0.0 0.0 0.00 0.00 0.00 48 1007.1
20260504023017 22 0.0 0.0 0.00 0.00 0.00 44 1007.4
20260504022017 23 0.0 0.0 0.00 0.00 0.00 37 1007.8
20260504021017 26 0.0 0.0 0.00 0.00 0.00 34 1007.8
20260504020017 26 0.0 1.6 0.00 0.00 0.00 30 1008.0
20260504015017 26 0.0 1.6 0.00 0.00 0.00 29 1008.1
20260504014017 27 158 1.6 4.8 0.00 0.00 0.00 26 1008.0
20260504013017 27 0.0 3.2 0.00 0.00 0.00 28 1008.1
20260504012017 27 270 1.6 3.2 0.00 0.00 0.00 27 1008.2
20260504011018 27 293 1.6 4.8 0.00 0.00 0.00 29 1008.4
20260504010058 27 0.0 1.6 0.00 0.00 0.00 28 1008.5
20260504005037 27 203 1.6 4.8 0.00 0.00 0.00 27 1008.6
20260504004017 26 293 3.2 14.5 0.00 0.00 0.00 27 1008.6
20260504003017 26 293 1.6 8.0 0.00 0.00 0.00 30 1008.7
20260504002017 26 293 1.6 11.3 0.00 0.00 0.00 28 1008.8
20260504001017 26 270 3.2 9.7 0.00 0.00 0.00 27 1009.1
20260504000017 26 293 1.6 12.9 0.00 0.00 0.00 25 1009.1
20260503235017 26 135 3.2 9.7 0.00 0.00 0.00 27 1009.2
20260503234016 26 113 1.6 6.4 0.00 0.00 0.00 30 1009.3
20260503233017 26 135 3.2 9.7 0.00 0.00 0.00 29 1009.5
20260503232017 26 315 3.2 11.3 0.00 0.00 0.00 29 1009.6
20260503231037 26 293 3.2 6.4 0.00 0.00 0.00 27 1009.7
20260503230117 26 270 3.2 6.4 0.00 0.00 0.00 28 1009.8
20260503225017 26 270 3.2 6.4 0.00 0.00 0.00 28 1009.9
20260503224017 26 270 3.2 11.3 0.00 0.00 0.00 29 1010.2
20260503223017 25 293 4.8 19.3 0.00 0.00 0.00 28 1010.3
20260503222017 26 293 1.6 6.4 0.00 0.00 0.00 26 1010.3
20260503221017 25 270 3.2 8.0 0.00 0.00 0.00 25 1010.5
20260503220037 25 293 4.8 11.3 0.00 0.00 0.00 25 1010.6
20260503215016 26 315 1.6 6.4 0.00 0.00 0.00 27 1010.9
20260503214017 25 270 3.2 12.9 0.00 0.00 0.00 27 1011.0
20260503213016 26 293 1.6 6.4 0.00 0.00 0.00 26 1011.3
20260503212037 26 135 1.6 4.8 0.00 0.00 0.00 26 1011.3
20260503211016 25 158 1.6 6.4 0.00 0.00 0.00 26 1011.4
20260503210016 25 293 4.8 9.7 0.00 0.00 0.00 22 1011.5
20260503205037 25 203 1.6 6.4 0.00 0.00 0.00 29 1011.8
20260503204017 25 293 3.2 12.9 0.00 0.00 0.00 28 1011.9
20260503203037 24 270 4.8 12.9 0.00 0.00 0.00 27 1012.1